[[{"header":{"parameterUnit":"m.s-1","parameterCategory":1,"la1":30.2991,"la2":30.254,"lo1":-89.0895,"lo2":-89.0444,"dy":0.0017,"dx":0.0017,"nx":28,"ny":28,"refTime":"2024-06-16T09:00:00:Z","depth":0,"parameterNumber":2,"parameterNumberName":"U-component_of_WINDS"},"data":[0,0,0,0,0,0,0,0,0,0,0,0,0,0,0,0,0,0,0,0,0,0,0,0,0,0,0,0,0,0,0,0,0,0,0,0,0,0,0,0,0,0,0,0,0,0,0,0,0,0,0,0,0,0,0,0,0,0,-6.4646,-6.4647,0,-6.4815,-6.4817,-6.4819,-6.4827,-6.4825,-6.4823,-6.4821,-6.4996,-6.5003,-6.5009,0,0,0,0,0,0,0,0,0,0,0,0,0,-6.4334,-6.4339,-6.4645,-6.4648,-6.465,-6.4814,-6.4817,-6.4819,-6.4827,-6.4825,-6.4822,-6.482,-6.4994,-6.5002,-6.501,0,0,0,0,0,0,0,0,0,0,0,0,0,-6.4483,-6.4341,-6.4645,-6.4674,-6.4678,-6.4814,-6.4817,-6.482,-6.4828,-6.4825,-6.4822,-6.4819,-6.4992,-6.5001,-6.5011,-6.5131,0,0,-6.5041,-6.5045,0,0,0,0,0,0,0,0,-6.4474,-6.4494,-6.4667,-6.4672,-6.4677,-6.4797,-6.4771,-6.4924,-6.4828,-6.4771,-6.4821,-6.4817,-6.4933,-6.4947,-6.4985,-6.5139,-6.5147,-6.5042,-6.5048,-6.5052,-6.5055,0,0,0,0,0,0,0,-6.4464,-6.4487,-6.4712,-6.467,-6.4676,-6.4679,-6.4697,-6.48,-6.4866,-6.4776,-6.4777,-6.4796,-6.4935,-6.4976,-6.499,-6.5149,-6.5041,-6.505,-6.5056,-6.506,-6.5412,-6.5415,0,0,0,0,0,0,-6.4447,-6.4478,-6.4707,-6.4718,-6.4566,-6.4687,-6.4707,-6.4761,-6.4865,-6.4878,-6.4799,-6.4796,-6.4961,-6.4978,-6.4996,-6.5143,-6.5052,-6.5061,-6.5067,-6.5409,-6.5413,-6.5417,0,0,0,0,0,0,-6.4441,-6.4468,-6.47,-6.4598,-6.4628,-6.4696,-6.4756,-6.4766,-6.4807,-6.4883,-6.4895,-6.4828,-6.4959,-6.4982,-6.5097,-6.5149,-6.5065,-6.5074,-6.5405,-6.541,-6.5415,-6.5438,0,0,0,0,0,0,-6.4432,-6.4465,-6.451,-6.4599,-6.4633,-6.4798,-6.476,-6.4772,-6.4824,-6.4822,-6.4914,-6.4926,-6.4958,-6.5083,-6.5107,-6.5161,-6.5082,-6.54,-6.5407,-6.5413,-6.5433,-6.5443,-6.5452,0,0,0,0,0,-6.4421,-6.451,-6.4512,-6.454,-6.4691,-6.48,-6.482,-6.4855,-6.4828,-6.4874,-6.4923,-6.4923,-6.514,-6.5095,-6.5122,-6.5179,-6.5397,-6.5405,-6.5413,-6.5428,-6.5441,-6.5452,0,0,0,0,0,0,-6.4425,-6.4522,-6.4526,-6.4647,-6.4715,-6.4802,-6.4861,-6.4867,-6.4945,-6.494,-6.4981,-6.5002,-6.5116,-6.5161,-6.5108,-6.5302,-6.5266,-6.528,-6.5268,-6.5281,-6.5291,-6.5276,-6.509,0,0,0,0,0,-6.4441,-6.452,-6.4602,-6.47,-6.4735,-6.4792,-6.4841,-6.4862,-6.4935,-6.4964,-6.5022,-6.5094,-6.5178,-6.5233,-6.5315,-6.5441,-6.5461,-6.5494,-6.5504,-6.5512,-6.5522,-6.5593,-6.5608,-6.5442,-6.5442,-6.5442,0,0,-6.4472,-6.4535,-6.4583,-6.4703,-6.4759,-6.4841,-6.4816,-6.4905,-6.4967,-6.4978,-6.5089,-6.5135,-6.5219,-6.534,-6.5396,-6.538,-6.5573,-6.5522,-6.5527,-6.5533,-6.5602,-6.5618,-6.5632,-6.5448,-6.5447,-6.5446,0,0,-6.4572,-6.4628,-6.4716,-6.4773,-6.4858,-6.4896,-6.4918,-6.5005,-6.5035,-6.5148,-6.5158,-6.5235,-6.5379,-6.5438,-6.5487,-6.5614,-6.5616,-6.564,-6.5689,-6.5757,-6.577,-6.5782,-6.5826,-6.5841,-6.5651,-6.5651,-6.5651,0,-6.46,-6.4724,-6.4761,-6.485,-6.4902,-6.4918,-6.5008,-6.5062,-6.517,-6.5207,-6.5188,-6.537,-6.5428,-6.5563,-6.5594,-6.5634,-6.566,-6.5627,-6.5765,-6.5777,-6.5789,-6.5831,-6.5848,-6.5653,-6.5652,-6.5652,-6.5652,0,-6.4755,-6.4841,-6.4903,-6.5006,-6.5066,-6.5156,-6.5207,-6.5265,-6.5282,-6.5323,-6.5439,-6.5509,-6.5606,-6.5641,-6.5659,-6.578,-6.5767,-6.5757,-6.572,-6.5806,-6.5846,-6.5863,-6.5656,-6.5655,-6.5654,-6.5654,0,0,-6.4858,-6.4982,-6.5004,-6.5051,-6.5148,-6.5216,-6.5308,-6.5402,-6.545,-6.5526,-6.5603,-6.5727,-6.5718,-6.5774,-6.58,-6.586,-6.5955,-6.5843,-6.5845,-6.5859,-6.6093,-6.6097,-6.6115,-6.596,-6.5963,-6.5966,-6.6085,0,-6.4966,-6.5126,-6.5164,-6.5302,-6.5383,-6.5401,-6.5481,-6.5549,-6.5592,-6.5667,-6.5715,-6.5801,-6.5784,-6.5818,-6.5879,-6.593,-6.6002,-6.5923,-6.6032,-6.6035,-6.6006,-6.6137,-6.6142,-6.6251,-6.6101,-6.6104,-6.6106,0,-6.5112,-6.519,-6.5336,-6.5424,-6.5459,-6.5529,-6.562,-6.5692,-6.5772,-6.5799,-6.5863,-6.5883,-6.598,-6.5943,-6.6078,-6.6023,-6.6072,-6.6105,-6.611,-6.6118,-6.6073,-6.6146,-6.6286,-6.6301,-6.6132,-6.613,-6.6128,0,-6.517,-6.5312,-6.5418,-6.5458,-6.5563,-6.5613,-6.5659,-6.5736,-6.5791,-6.5872,-6.5908,-6.5999,-6.6048,-6.612,-6.6165,-6.6133,-6.6297,-6.6263,-6.6321,-6.632,-6.6351,-6.6348,-6.6498,-6.6388,-6.6388,-6.6387,-6.6387,0,-6.5285,-6.5373,-6.5445,-6.5509,-6.561,-6.5654,-6.5753,-6.58,-6.5869,-6.5944,-6.5968,-6.6038,-6.6095,-6.6174,-6.6211,-6.6318,-6.6341,-6.6365,-6.6373,-6.6361,-6.6357,-6.639,-6.6382,-6.6392,-6.6391,-6.639,-6.6389,0,-6.5364,-6.5416,-6.5532,-6.5623,-6.5648,-6.5718,-6.5796,-6.5861,-6.5905,-6.6001,-6.6026,-6.6096,-6.619,-6.6244,-6.6363,-6.6388,-6.6506,-6.6512,-6.6478,-6.6481,-6.6536,-6.6529,-6.6709,-6.6735,-6.661,-6.6611,-6.6612,0,-6.5432,-6.55,-6.5599,-6.565,-6.5697,-6.5781,-6.5837,-6.5885,-6.5943,-6.6041,-6.6094,-6.619,-6.6269,-6.642,-6.6482,-6.6575,-6.6581,-6.6639,-6.6595,-6.6581,-6.658,-6.6574,-6.6581,-6.6644,-6.6645,-6.6646,-6.6647,0,-6.5546,-6.557,-6.5649,-6.5739,-6.5805,-6.5878,-6.5951,-6.5993,-6.6053,-6.6118,-6.6214,-6.6276,-6.6398,-6.6494,-6.6591,-6.6642,-6.6655,-6.6661,-6.6679,-6.6665,-6.6642,-6.6654,-6.6495,-6.6656,-6.6655,-6.6654,-6.6654,-6.6653,-6.5621,-6.5682,-6.5761,-6.585,-6.591,-6.5978,-6.6043,-6.6096,-6.6177,-6.6279,-6.6304,-6.6406,-6.6488,-6.662,-6.6673,-6.6755,-6.6744,-6.6771,-6.6777,-6.6782,-6.6783,-6.6632,-6.6773,-6.6773,-6.6773,-6.6773,-6.6773,0,-6.5735,-6.5787,-6.5868,-6.5969,-6.6039,-6.6047,-6.6129,-6.6187,-6.6276,-6.635,-6.6428,-6.654,-6.6633,-6.6705,-6.6801,-6.6852,-6.6861,-6.6876,-6.6871,-6.6882,-6.6788,-6.6761,-6.6867,-6.6867,-6.6867,-6.6867,-6.6867,-6.6867,-6.5802,-6.5906,-6.5939,-6.6074,-6.6127,-6.6226,-6.6272,-6.6335,-6.6395,-6.6518,-6.6596,-6.6642,-6.6716,-6.6818,-6.6905,-6.6924,-6.6957,-6.697,-6.699,-6.6899,-6.6889,-6.6879,-6.6854,-6.6978,-6.6978,-6.7077,-6.7078,-6.7079]},{"header":{"parameterUnit":"m.s-1","parameterCategory":1,"la1":30.2991,"la2":30.254,"lo1":-89.0895,"lo2":-89.0444,"dy":0.0017,"dx":0.0017,"nx":28,"ny":28,"refTime":"2024-06-16T09:00:00:Z","depth":0,"parameterNumber":3,"parameterNumberName":"V-component_of_WINDS"},"data":[0,0,0,0,0,0,0,0,0,0,0,0,0,0,0,0,0,0,0,0,0,0,0,0,0,0,0,0,0,0,0,0,0,0,0,0,0,0,0,0,0,0,0,0,0,0,0,0,0,0,0,0,0,0,0,0,0,0,2.8273,2.8273,0,2.8299,2.8299,2.83,2.8352,2.8353,2.8354,2.8355,2.8377,2.8377,2.8376,0,0,0,0,0,0,0,0,0,0,0,0,0,2.8264,2.8264,2.8273,2.8273,2.8273,2.8299,2.8299,2.83,2.8352,2.8353,2.8355,2.8356,2.8377,2.8377,2.8376,0,0,0,0,0,0,0,0,0,0,0,0,0,2.8276,2.8264,2.8273,2.8303,2.8306,2.8299,2.8299,2.83,2.8352,2.8353,2.8355,2.8356,2.8378,2.8377,2.8376,2.8341,0,0,2.8375,2.8374,0,0,0,0,0,0,0,0,2.8276,2.8277,2.8298,2.8301,2.8304,2.8324,2.8304,2.8314,2.8351,2.8334,2.8355,2.8357,2.8358,2.8359,2.836,2.8342,2.8343,2.8374,2.8374,2.8374,2.8374,0,0,0,0,0,0,0,2.8275,2.8276,2.8283,2.8298,2.8302,2.8314,2.8317,2.8306,2.8337,2.8336,2.834,2.8342,2.836,2.8361,2.8361,2.8343,2.8374,2.8374,2.8374,2.8373,2.8299,2.8297,0,0,0,0,0,0,2.827,2.8275,2.8282,2.8284,2.8294,2.8312,2.8316,2.8316,2.8337,2.8342,2.8341,2.8345,2.8361,2.8362,2.8362,2.8324,2.8374,2.8373,2.8373,2.83,2.8298,2.8297,0,0,0,0,0,0,2.827,2.827,2.8281,2.828,2.8283,2.8311,2.831,2.8316,2.8317,2.8341,2.8346,2.8337,2.8362,2.8363,2.8347,2.8325,2.8373,2.8372,2.8302,2.83,2.8298,2.8245,0,0,0,0,0,0,2.8269,2.827,2.8258,2.828,2.8283,2.8266,2.8309,2.8315,2.8316,2.8321,2.8338,2.8343,2.8364,2.8347,2.8346,2.8325,2.8372,2.8304,2.8301,2.8298,2.8249,2.8241,2.8234,0,0,0,0,0,2.8269,2.824,2.8257,2.8257,2.8268,2.8265,2.8266,2.8292,2.8314,2.8302,2.8318,2.8342,2.8327,2.8345,2.8344,2.8323,2.8306,2.8302,2.8299,2.8252,2.8242,2.8235,0,0,0,0,0,0,2.8212,2.8244,2.8262,2.824,2.825,2.8274,2.8259,2.8281,2.8283,2.8288,2.8319,2.8322,2.8302,2.831,2.833,2.829,2.8321,2.8317,2.8285,2.8277,2.827,2.8268,2.8372,0,0,0,0,0,2.8198,2.8194,2.8221,2.8199,2.8203,2.823,2.8229,2.8249,2.8259,2.8263,2.8277,2.8285,2.8283,2.828,2.8279,2.825,2.8255,2.8235,2.8228,2.8222,2.8218,2.8204,2.8196,2.8285,2.8285,2.8285,0,0,2.8167,2.8183,2.8179,2.8188,2.8198,2.8192,2.8233,2.8225,2.8221,2.8261,2.8248,2.8258,2.8269,2.8247,2.8237,2.8253,2.8195,2.8217,2.8212,2.8212,2.82,2.8191,2.8184,2.8282,2.8283,2.8283,0,0,2.8108,2.812,2.8104,2.8113,2.8128,2.8147,2.8143,2.8164,2.8173,2.816,2.8191,2.8186,2.818,2.8187,2.819,2.8135,2.8158,2.8133,2.8096,2.8082,2.8075,2.8069,2.8051,2.8043,2.813,2.8129,2.8129,0,2.8067,2.8062,2.8092,2.8083,2.8086,2.8125,2.8109,2.8115,2.8128,2.8129,2.8147,2.8142,2.8152,2.8132,2.8119,2.812,2.8116,2.8132,2.8074,2.8069,2.8063,2.8046,2.8038,2.8126,2.8127,2.8127,2.8127,0,2.8011,2.8007,2.7992,2.8006,2.8007,2.7994,2.8022,2.8019,2.8039,2.8055,2.8041,2.8055,2.8058,2.8054,2.8072,2.8038,2.8047,2.8069,2.81,2.8051,2.8035,2.8029,2.8122,2.8123,2.8124,2.8125,0,0,2.7917,2.795,2.7944,2.7951,2.7971,2.7967,2.7956,2.7961,2.7958,2.7966,2.7957,2.7952,2.7973,2.7976,2.7996,2.7984,2.7941,2.8007,2.8008,2.7995,2.7904,2.7888,2.7879,2.7956,2.7955,2.7954,2.7903,0,2.7863,2.7848,2.7875,2.7853,2.7849,2.7886,2.7876,2.7887,2.7902,2.79,2.7916,2.7912,2.794,2.7942,2.7932,2.7948,2.7923,2.7952,2.7947,2.7947,2.7944,2.7871,2.7853,2.7805,2.7897,2.7896,2.7895,0,2.7798,2.7805,2.7783,2.7806,2.7805,2.7796,2.7803,2.7801,2.7814,2.7825,2.7829,2.7853,2.7843,2.7873,2.7859,2.7878,2.7878,2.7885,2.7884,2.7885,2.7918,2.787,2.779,2.7783,2.7885,2.7886,2.7887,0,2.7733,2.7737,2.7724,2.7729,2.7755,2.7748,2.7758,2.7772,2.7774,2.7779,2.7781,2.7784,2.7786,2.7788,2.7811,2.7831,2.7795,2.7826,2.7804,2.7803,2.7794,2.7795,2.7714,2.7793,2.7793,2.7793,2.7793,0,2.7671,2.7656,2.7696,2.7688,2.7672,2.7704,2.7687,2.77,2.7713,2.7708,2.7739,2.7733,2.7765,2.7762,2.778,2.7766,2.7767,2.7775,2.778,2.7773,2.7772,2.7774,2.7778,2.7791,2.7792,2.7792,2.7792,0,2.7596,2.7622,2.7611,2.7637,2.7643,2.763,2.7652,2.7645,2.7663,2.7656,2.7656,2.7683,2.7681,2.7705,2.7708,2.772,2.7698,2.7709,2.7695,2.7698,2.7674,2.7677,2.7592,2.7583,2.7667,2.7666,2.7665,0,2.7554,2.7544,2.757,2.757,2.7579,2.7578,2.758,2.761,2.7611,2.7625,2.7617,2.7619,2.7622,2.7618,2.7636,2.7639,2.765,2.762,2.7651,2.7644,2.7651,2.7651,2.7651,2.7614,2.7613,2.7612,2.7611,0,2.7479,2.7493,2.7496,2.7504,2.7506,2.7513,2.7522,2.752,2.7553,2.7552,2.7552,2.7555,2.7559,2.756,2.7566,2.7575,2.7598,2.7602,2.7597,2.7589,2.7582,2.7587,2.7678,2.7604,2.7604,2.7605,2.7605,2.7606,2.742,2.7414,2.7431,2.7433,2.7444,2.7452,2.7447,2.7465,2.7466,2.7473,2.749,2.7488,2.7501,2.7512,2.7519,2.7517,2.7531,2.7524,2.7522,2.752,2.7516,2.7582,2.7518,2.7518,2.7518,2.7519,2.7519,0,2.7347,2.7361,2.7363,2.7376,2.7378,2.7401,2.7412,2.7412,2.741,2.7421,2.7424,2.7424,2.7426,2.7445,2.7449,2.7443,2.7454,2.7443,2.7444,2.7446,2.7502,2.7507,2.7435,2.7435,2.7435,2.7435,2.7435,2.7435,2.731,2.73,2.7316,2.7311,2.7324,2.7324,2.7328,2.7335,2.7345,2.7344,2.7347,2.736,2.7374,2.7379,2.7382,2.7387,2.7387,2.7373,2.7382,2.7434,2.7442,2.745,2.7454,2.7372,2.7372,2.7326,2.7326,2.7326]}]]